National Oceanic Atmosphere Administration National Weather Service Headquarters National Weather Service Headquarters
NOAA logo WFO Anchorage Scalable transition graphic NWS logo
Transition from title bar to navgation bar   Aviation Weather 17 AKDT 
blankspace Home   |   Mobile   |   Social Media   |   Mesonet   |   Surface Map   |   Radar   |   Submit Storm Reports   |   News =01 GMT 

LocalForecast by City, St or Zip Code

spacer

Forecasts/Products
  Public
  Forecast Discussion
    - With Glossary
  Aviation
  Marine
  Hydrology(RFC)
  Rivers & Lakes AHPS
  Ice Desk
  TV Weather
  Fire Weather
  Avalanche
  Travel 511
  Graphical
  xml logo RSS Feeds
  Marine FTPMail

spacer

Data
  Mesonet
  Model Graphics
  Local Model
  Observations
  Marine Obs
  Satellite/Radar
  Vent Factor
  Soaring Index
  Weather Links

spacer

Climate
  PAFC Climate
  Interactive Climate
  PAFC Records
  Local
  National
  More

spacer

Outreach
  About Us
  Community Outreach
  Kids' Page
  Tour/Speaker Request
  Weather Classroom
  Social Media

spacer

Reports
  COOP Observers
  Local Storm Reports
  Spotter Page
  Submit a Storm Report

spacer

Miscellaneous
  Archived Alaska Weather Stories
  Student Career Opportunities
  Research Papers

spacer

Print Friendly/
Low Bandwidth

  Public Forecasts
  Marine Forecasts

spacer

Contact Us
  mailto pafcweb

spacer

Facebook Follow the National Weather Service in Alaska on Twitter
USA.gov is the U.S. government's official web portal to all federal, state and local government web resources and services.


 ICAO ID:   AAWU Graphics

Internet access to TAFs and METAR observations is for planning purposes only. We can not guarantee the timeliness of internet products. Before flying please get a formal pilot briefing (1-800-992-7433) and ALWAYS file a Flight Plan!Pilot briefings are provided to licensed aircraft pilots, ONLY! Others may not use the above number to obtain weather information.

Check out the Key to TAFs and METARs for help with decoding the information.

A 12 hour summary of TAFs can be found here.

PAFA TAF
PAFA 262320Z 2700/2806  VRB05KT P6SM SCT090
     FM270200 VRB03KT P6SM SCT050 BKN080
     FM270800 05004KT P6SM SCT050 OVC080
     FM271100 01004KT P6SM VCSH BKN100=


METAR PAFA 270053Z 04009KT 10SM SCT080 BKN100 OVC200 13/M02 A2961 RMK
     AO2 SLP032 PRSNT WX VCSH N AND SE VIRGA T01331022=
METAR PAFA 270053Z 04009KT 10SM SCT080 BKN100 OVC200 13/M02 A2961=
METAR PAFA 262353Z 35008KT 10SM FEW050 BKN080 BKN200 14/M03 A2962
 RMK AO2 SLP034 VIRGA T01441033 10156 20072 56022=
METAR PAFA 262353Z 35008KT 10SM FEW050 BKN080 BKN200 14/M03 A2962=
METAR PAFA 262253Z COR VRB05KT 10SM SCT050 SCT090 BKN180 15/M03 A2964
     RMK AO2 SLP042 VIRGA N AND NW T01501033=
METAR PAFA 262253Z VRB05KT 10SM FEW050 SCT090 BKN180 15/M03 A2964=
METAR PAFA 262153Z VRB06KT 10SM FEW050 SCT090 BKN180 13/M03 A2966 RMK
     AO2 SLP049 VIRGA N T01281028=
METAR PAFA 262153Z VRB06KT 10SM FEW050 SCT090 BKN180 13/M03 A2966=


National Weather Service
Anchorage Forecast Office
6930 Sand Lake Road
Anchorage, Ak 99502
(907) 266-5105 M-F/7-5pm
About Us
Career Opportunities
Glossary
Disclaimer
Privacy Policy
Credits
Alaska Weather Information Line:
1-800-472-0391